FW8108 Weather Reports


Display with metric or nautical units.
time (UTC)temp
F
wind
direction
speed
MPH
gust
MPH
rain 1hr
in
rain 24hr
in
rain mn
in
humidity
%
barometer
mb
20260509102803 26 196 0.0 0.0 0.00 0.00 0.00 97 1013.8
20260509102305 27 196 0.0 0.0 0.00 0.00 0.00 97 1013.7
20260509101803 27 196 0.0 0.0 0.00 0.00 0.00 97 1013.5
20260509100803 26 196 0.0 0.0 0.00 0.00 0.00 97 1013.7
20260509100304 27 196 0.0 0.0 0.00 0.00 0.00 97 1013.8
20260509095804 27 196 0.0 0.0 0.00 0.00 0.00 97 1013.5
20260509095306 27 196 0.0 0.0 0.00 0.00 0.00 97 1013.5
20260509094804 27 196 0.0 0.0 0.00 0.00 0.00 97 1013.3
20260509094304 26 196 0.0 0.0 0.00 0.00 0.00 98 1013.3
20260509093804 27 196 0.0 0.0 0.00 0.00 0.00 97 1013.2
20260509093304 27 196 0.0 0.0 0.00 0.00 0.00 98 1013.1
20260509092803 26 195 0.0 0.0 0.00 0.00 0.00 98 1013.1
20260509092305 26 196 0.0 0.0 0.00 0.00 0.00 97 1012.8
20260509091804 27 196 0.0 0.0 0.00 0.00 0.00 97 1013.0
20260509091303 26 195 0.0 0.0 0.00 0.00 0.00 97 1012.9
20260509090804 27 196 0.0 0.0 0.00 0.00 0.00 97 1012.9
20260509090303 27 195 0.0 0.0 0.00 0.00 0.00 97 1013.0
20260509085804 27 195 0.0 0.0 0.00 0.00 0.00 97 1012.9
20260509084804 27 195 0.0 0.0 0.00 0.00 0.00 97 1013.1
20260509084304 27 195 0.0 0.0 0.00 0.00 0.00 97 1013.1
20260509083804 26 195 0.0 0.0 0.00 0.00 0.00 97 1013.1
20260509083304 27 195 0.0 0.0 0.00 0.00 0.00 96 1013.0
20260509082804 27 195 0.0 0.0 0.00 0.00 0.00 96 1013.1
20260509082306 27 195 0.0 0.0 0.00 0.00 0.00 96 1013.0
20260509080804 27 195 0.0 0.0 0.00 0.00 0.00 96 1013.1
20260509075803 27 195 0.0 0.0 0.00 0.00 0.00 96 1013.2
20260509075306 28 195 0.0 0.0 0.00 0.00 0.00 95 1013.1
20260509074804 28 195 0.0 0.0 0.00 0.00 0.00 95 1013.2
20260509073804 27 195 0.0 0.0 0.00 0.00 0.00 96 1013.0
20260509073304 27 195 0.0 0.0 0.00 0.00 0.00 95 1013.2
20260509072804 28 195 0.0 0.0 0.00 0.00 0.00 95 1013.1
20260509072306 28 195 0.0 0.0 0.00 0.00 0.00 94 1013.2
20260509071804 28 195 0.0 0.0 0.00 0.00 0.00 93 1013.0
20260509071304 28 195 0.0 0.0 0.00 0.00 0.00 94 1013.1
20260509070804 28 195 0.0 0.0 0.00 0.00 0.00 95 1013.2
20260509070304 28 195 0.0 0.0 0.00 0.00 0.00 96 1013.2
20260509065306 28 195 0.0 0.0 0.00 0.00 0.00 96 1013.3
20260509063805 28 195 0.0 0.0 0.00 0.00 0.00 95 1013.2
20260509063303 28 195 0.0 0.0 0.00 0.00 0.00 95 1013.1
20260509062804 28 195 0.0 0.0 0.00 0.00 0.00 96 1013.1
20260509062306 28 195 0.0 0.0 0.00 0.00 0.00 95 1013.1
20260509061804 28 195 0.0 0.0 0.00 0.00 0.00 95 1013.1
20260509061304 28 195 0.0 0.0 0.00 0.00 0.00 95 1013.3
20260509060804 28 195 0.0 0.0 0.00 0.00 0.00 94 1013.2
20260509060304 28 195 0.0 0.0 0.00 0.00 0.00 94 1013.2
20260509055804 28 195 0.0 0.0 0.00 0.00 0.00 94 1013.2
20260509054804 29 195 0.0 0.0 0.00 0.00 0.00 94 1013.0
20260509054304 29 195 0.0 0.0 0.00 0.00 0.00 94 1013.2
20260509053805 29 195 0.0 0.0 0.00 0.00 0.00 94 1013.0
20260509053304 29 195 0.0 0.0 0.00 0.00 0.00 93 1013.0
20260509052804 29 195 0.0 0.0 0.00 0.00 0.00 93 1013.0
20260509052307 29 195 0.0 0.0 0.00 0.00 0.00 93 1013.1
20260509051304 30 195 0.0 0.0 0.00 0.00 0.00 92 1012.9
20260509050804 30 195 0.0 0.0 0.00 0.00 0.00 91 1013.0
20260509045804 30 195 0.0 0.0 0.00 0.00 0.00 91 1013.0
20260509045306 30 195 0.0 0.0 0.00 0.00 0.00 90 1013.0
20260509044804 30 195 0.0 0.0 0.00 0.00 0.00 90 1013.0
20260509044304 31 195 0.0 0.0 0.00 0.00 0.00 90 1012.9
20260509043804 31 195 0.0 0.0 0.00 0.00 0.00 90 1013.1
20260509043304 31 195 0.0 0.0 0.00 0.00 0.00 89 1013.0
20260509042804 32 195 0.0 0.0 0.00 0.00 0.00 88 1012.9
20260509041804 32 195 0.0 0.0 0.00 0.00 0.00 87 1013.0
20260509040824 32 195 0.0 0.0 0.00 0.00 0.00 87 1012.8
20260509040304 32 195 0.0 0.0 0.00 0.00 0.00 86 1012.7
20260509035804 32 195 0.0 0.0 0.00 0.00 0.00 85 1012.7
20260509034804 33 195 0.0 0.0 0.00 0.00 0.00 83 1012.8
20260509034304 33 195 0.0 0.0 0.00 0.00 0.00 83 1012.7
20260509032804 34 195 0.0 0.0 0.00 0.00 0.00 79 1012.5
20260509032306 34 195 0.0 0.0 0.00 0.00 0.00 78 1012.6
20260509031804 35 195 0.0 1.0 0.00 0.00 0.00 79 1012.6
20260509031304 35 195 0.0 1.0 0.00 0.00 0.00 77 1012.4
20260509030803 35 195 1.0 1.0 0.00 0.00 0.00 76 1012.4
20260509030304 35 195 0.0 1.0 0.00 0.00 0.00 78 1012.3
20260509025306 36 195 0.0 1.0 0.00 0.00 0.00 77 1012.4
20260509024304 37 195 0.0 1.0 0.00 0.00 0.00 72 1012.2
20260509023803 37 195 1.0 1.0 0.00 0.00 0.00 70 1012.1
20260509023304 37 195 1.0 1.0 0.00 0.00 0.00 73 1012.2
20260509022804 37 195 0.0 1.0 0.00 0.00 0.00 72 1012.2
20260509022306 37 195 0.0 1.0 0.00 0.00 0.00 71 1012.1
20260509021804 38 195 0.0 1.0 0.00 0.00 0.00 71 1012.1
20260509021304 38 195 1.0 1.0 0.00 0.00 0.00 68 1012.0
20260509020803 38 195 1.0 1.0 0.00 0.00 0.00 73 1012.0
20260509020304 38 195 1.0 1.0 0.00 0.00 0.00 71 1011.9
20260509015804 39 195 0.0 0.0 0.00 0.00 0.00 72 1012.0
20260509014304 39 195 0.0 1.0 0.00 0.00 0.00 70 1011.9
20260509013805 40 195 0.0 0.0 0.00 0.00 0.00 70 1011.7
20260509012804 41 195 0.0 1.0 0.00 0.00 0.00 63 1011.6
20260509011803 41 195 1.0 1.0 0.00 0.00 0.00 62 1011.5
20260509011304 41 195 0.0 1.0 0.00 0.00 0.00 61 1011.3
20260509010803 41 195 0.0 1.0 0.00 0.00 0.00 61 1011.4
20260509010303 41 195 0.0 1.0 0.00 0.00 0.00 62 1011.2
20260509005804 41 195 0.0 0.0 0.00 0.00 0.00 63 1011.2
20260509005306 42 195 0.0 1.0 0.00 0.00 0.00 61 1011.1
20260509004804 42 195 0.0 1.0 0.00 0.00 0.00 59 1011.0
20260509004304 43 195 0.0 1.0 0.00 0.00 0.00 55 1011.0
20260509003804 43 195 1.0 1.0 0.00 0.00 0.00 56 1010.8
20260509002306 43 200 2.0 2.0 0.00 0.00 0.00 56 1010.7
20260509001304 44 225 2.0 2.0 0.00 0.00 0.00 54 1010.7
20260509000303 45 225 2.0 2.0 0.00 0.00 0.00 54 1010.7
20260508235804 45 257 1.0 2.0 0.00 0.00 0.00 53 1010.5
20260508234804 45 272 1.0 2.0 0.00 0.00 0.00 52 1010.5
20260508234304 46 272 1.0 2.0 0.00 0.00 0.00 51 1010.6
20260508233804 46 279 1.0 1.0 0.00 0.00 0.00 50 1010.5
20260508233304 47 305 0.0 0.0 0.00 0.00 0.00 48 1010.6
20260508231804 48 309 0.0 1.0 0.00 0.00 0.00 46 1010.6
20260508231304 48 309 1.0 2.0 0.00 0.00 0.00 49 1010.3
20260508230803 48 308 1.0 5.0 0.00 0.00 0.00 44 1010.4
20260508225306 48 301 1.0 3.0 0.00 0.00 0.00 46 1010.4
20260508224804 48 301 1.0 7.0 0.00 0.00 0.00 44 1010.5
20260508224304 48 315 3.0 7.0 0.00 0.00 0.00 47 1010.4
20260508223803 48 301 2.0 7.0 0.00 0.00 0.00 44 1010.4
20260508223303 48 312 2.0 7.0 0.00 0.00 0.00 45 1010.5
20260508222306 49 297 2.0 3.0 0.00 0.00 0.00 46 1010.3
20260508221804 48 325 2.0 8.0 0.00 0.00 0.00 43 1010.2
20260508221304 49 309 2.0 6.0 0.00 0.00 0.00 44 1010.4
20260508220803 49 297 2.0 8.0 0.00 0.00 0.00 45 1010.1
20260508215306 48 328 3.0 9.0 0.00 0.00 0.00 45 1010.0
20260508214804 48 287 5.0 8.0 0.00 0.00 0.00 43 1010.1
20260508214304 49 308 4.0 12.0 0.00 0.00 0.00 45 1010.1
20260508213803 49 287 3.0 7.0 0.00 0.00 0.00 44 1010.2
20260508213304 49 337 2.0 9.0 0.00 0.00 0.00 45 1010.0
20260508212804 50 328 4.0 9.0 0.00 0.00 0.00 45 1009.9
20260508212306 50 286 3.0 8.0 0.00 0.00 0.00 42 1010.2
20260508210804 49 321 3.0 12.0 0.00 0.00 0.00 44 1010.0
20260508205804 49 269 9.0 13.0 0.00 0.00 0.00 44 1010.0
20260508205306 49 295 4.0 8.0 0.00 0.00 0.00 45 1009.8
20260508204803 50 324 4.0 8.0 0.00 0.00 0.00 45 1009.9
20260508204303 49 308 4.0 12.0 0.00 0.00 0.00 47 1009.8
20260508203804 49 301 6.0 12.0 0.00 0.00 0.00 44 1009.8
20260508202804 49 303 3.0 5.0 0.00 0.00 0.00 49 1009.7
20260508202307 49 281 3.0 6.0 0.00 0.00 0.00 47 1009.8
20260508201804 48 258 3.0 10.0 0.00 0.00 0.00 47 1009.7
20260508200304 48 304 1.0 8.0 0.00 0.00 0.00 47 1009.9
20260508195804 47 311 6.0 9.0 0.00 0.00 0.00 47 1009.8
20260508195306 48 306 5.0 8.0 0.00 0.00 0.00 46 1009.7
20260508194803 49 272 3.0 8.0 0.00 0.00 0.00 46 1009.7
20260508194303 49 288 3.0 13.0 0.00 0.00 0.00 46 1009.7
20260508193805 49 316 3.0 15.0 0.00 0.00 0.00 46 1009.9
20260508192804 49 298 6.0 14.0 0.00 0.00 0.00 45 1009.7
20260508192306 50 335 5.0 10.0 0.00 0.00 0.00 46 1009.9
20260508191804 50 310 5.0 9.0 0.00 0.00 0.00 47 1009.8
20260508191303 49 298 4.0 9.0 0.00 0.00 0.00 46 1009.8
20260508190304 49 283 6.0 12.0 0.00 0.00 0.00 44 1009.8
20260508185804 48 287 6.0 12.0 0.00 0.00 0.00 48 1009.9
20260508185306 49 288 6.0 8.0 0.00 0.00 0.00 47 1009.8
20260508184303 47 296 5.0 9.0 0.00 0.00 0.00 47 1009.9
20260508183803 48 287 3.0 9.0 0.00 0.00 0.00 48 1009.9
20260508183305 47 295 3.0 9.0 0.00 0.00 0.00 47 1010.0
20260508182804 47 317 6.0 12.0 0.00 0.00 0.00 49 1010.0
20260508181804 46 291 12.0 17.0 0.00 0.00 0.00 49 1010.0
20260508181304 46 253 6.0 9.0 0.00 0.00 0.00 49 1010.1
20260508180804 46 311 6.0 10.0 0.00 0.00 0.00 50 1010.1
20260508175804 46 315 7.0 10.0 0.00 0.00 0.00 49 1010.0
20260508175306 47 304 5.0 9.0 0.00 0.00 0.00 51 1009.8
20260508174804 47 280 3.0 9.0 0.00 0.00 0.00 50 1010.1
20260508174304 47 311 3.0 5.0 0.00 0.00 0.00 52 1009.9
20260508172804 46 250 3.0 7.0 0.00 0.00 0.00 51 1009.8
20260508172307 46 278 3.0 6.0 0.00 0.00 0.00 50 1010.0
20260508171804 46 281 3.0 8.0 0.00 0.00 0.00 52 1010.0
20260508170304 45 355 6.0 12.0 0.00 0.00 0.00 51 1009.9
20260508165804 45 273 5.0 13.0 0.00 0.00 0.00 51 1010.0
20260508165306 46 306 3.0 9.0 0.00 0.00 0.00 50 1010.0
20260508164803 45 256 5.0 12.0 0.00 0.00 0.00 51 1010.0
20260508164304 45 320 7.0 13.0 0.00 0.00 0.00 50 1009.9
20260508163804 45 322 5.0 9.0 0.00 0.00 0.00 49 1009.9
20260508163304 45 292 2.0 6.0 0.00 0.00 0.00 51 1010.0
20260508162804 45 291 3.0 7.0 0.00 0.00 0.00 51 1009.9
20260508162306 45 264 3.0 12.0 0.00 0.00 0.00 50 1009.9
20260508161803 45 315 6.0 12.0 0.00 0.00 0.00 50 1009.8
20260508161304 46 255 5.0 13.0 0.00 0.00 0.00 51 1009.9
20260508160305 47 325 4.0 7.0 0.00 0.00 0.00 48 1009.6
20260508155804 47 275 2.0 7.0 0.00 0.00 0.00 49 1009.7
20260508155306 46 217 3.0 9.0 0.00 0.00 0.00 48 1009.7
20260508154804 45 275 5.0 10.0 0.00 0.00 0.00 49 1009.7
20260508154304 46 299 6.0 10.0 0.00 0.00 0.00 50 1009.8
20260508153804 45 311 5.0 10.0 0.00 0.00 0.00 51 1009.8
20260508153304 45 313 4.0 10.0 0.00 0.00 0.00 51 1009.9
20260508152306 45 308 6.0 10.0 0.00 0.00 0.00 54 1010.0
20260508151804 45 274 6.0 10.0 0.00 0.00 0.00 56 1009.9
20260508151304 44 303 4.0 15.0 0.00 0.00 0.00 58 1009.9
20260508150804 44 294 5.0 13.0 0.00 0.00 0.00 59 1009.7
20260508150304 44 353 6.0 13.0 0.00 0.00 0.00 55 1009.6
20260508145804 44 322 4.0 8.0 0.00 0.00 0.00 56 1009.9
20260508144303 43 315 5.0 14.0 0.00 0.00 0.00 59 1010.0
20260508143804 44 345 4.0 9.0 0.00 0.00 0.00 61 1010.0
20260508143304 44 291 3.0 9.0 0.00 0.00 0.00 62 1010.2
20260508142804 45 291 5.0 9.0 0.00 0.00 0.00 62 1009.9
20260508141804 44 300 5.0 10.0 0.00 0.00 0.00 64 1010.0
20260508141304 43 292 5.0 10.0 0.00 0.00 0.00 64 1010.0
20260508140304 43 340 3.0 7.0 0.00 0.00 0.00 67 1009.9
20260508135804 43 260 5.0 7.0 0.00 0.00 0.00 67 1009.9
20260508135306 42 304 3.0 9.0 0.00 0.00 0.00 67 1009.9
20260508134804 42 326 5.0 10.0 0.00 0.00 0.00 67 1009.9
20260508134304 42 288 8.0 17.0 0.00 0.00 0.00 66 1009.8
20260508133804 43 304 5.0 16.0 0.00 0.00 0.00 66 1009.9
20260508133304 43 348 5.0 16.0 0.00 0.00 0.00 68 1009.8
20260508132306 44 289 3.0 10.0 0.00 0.00 0.00 66 1009.8
20260508131804 45 288 4.0 8.0 0.00 0.00 0.00 64 1009.5
20260508131304 44 315 2.0 9.0 0.00 0.00 0.00 67 1009.5
20260508130804 44 305 3.0 9.0 0.00 0.00 0.00 70 1009.7
20260508130304 43 276 1.0 5.0 0.00 0.00 0.00 73 1009.7
20260508125306 42 254 1.0 3.0 0.00 0.00 0.00 73 1009.6
20260508124304 40 310 1.0 6.0 0.00 0.00 0.00 78 1009.6
20260508123803 39 285 2.0 6.0 0.00 0.00 0.00 77 1009.6
20260508123304 38 264 1.0 2.0 0.00 0.00 0.00 84 1009.6
20260508122804 36 320 0.0 2.0 0.00 0.00 0.00 89 1009.6
20260508122306 38 309 2.0 3.0 0.00 0.00 0.00 90 1009.6
20260508121304 36 302 1.0 2.0 0.00 0.00 0.00 93 1009.4
20260508120804 34 77 1.0 2.0 0.00 0.00 0.00 96 1009.4
20260508115803 33 304 2.0 3.0 0.00 0.00 0.00 98 1009.5
20260508114804 32 310 0.0 2.0 0.00 0.00 0.00 99 1009.5
20260508114303 31 315 1.0 1.0 0.00 0.00 0.00 99 1009.5
20260508113804 31 325 0.0 1.0 0.00 0.00 0.00 99 1009.4
20260508113304 31 318 0.0 1.0 0.00 0.00 0.00 99 1009.2
20260508112804 31 317 1.0 1.0 0.00 0.00 0.00 99 1009.2
20260508111804 31 329 0.0 0.0 0.00 0.00 0.00 99 1009.3
20260508110804 31 330 0.0 1.0 0.00 0.00 0.00 99 1009.1
20260508110304 31 312 0.0 0.0 0.00 0.00 0.00 99 1009.1
20260508105804 30 312 0.0 0.0 0.00 0.00 0.00 99 1009.2
20260508105306 30 310 0.0 0.0 0.00 0.00 0.00 99 1009.2
20260508104804 30 309 0.0 0.0 0.00 0.00 0.00 99 1009.2
20260508104304 30 307 0.0 1.0 0.00 0.00 0.00 99 1009.0
20260508103805 30 303 0.0 1.0 0.00 0.00 0.00 99 1009.0
20260508103304 30 311 1.0 1.0 0.00 0.00 0.00 99 1009.1